TimeCST,TemperatureF,Dew PointF,Humidity,Sea Level PressureIn,VisibilityMPH,Wind Direction,Wind SpeedMPH,Gust SpeedMPH,PrecipitationIn,Events,Conditions,WindDirDegrees,DateUTC
12:53 AM,41.0,25.0,53,29.97,10.0,West,10.4,-,N/A,,Clear,270,2014-02-09 06:53:00
1:53 AM,37.9,24.1,57,29.97,10.0,WNW,11.5,-,N/A,,Partly Cloudy,290,2014-02-09 07:53:00
2:53 AM,41.0,25.0,53,29.94,10.0,NW,13.8,-,N/A,,Scattered Clouds,310,2014-02-09 08:53:00
3:53 AM,43.0,26.1,51,29.91,10.0,WNW,13.8,-,N/A,,Scattered Clouds,290,2014-02-09 09:53:00
4:53 AM,39.9,25.0,55,29.91,10.0,West,6.9,-,N/A,,Scattered Clouds,280,2014-02-09 10:53:00
5:53 AM,41.0,24.1,51,29.91,10.0,WSW,9.2,-,N/A,,Partly Cloudy,250,2014-02-09 11:53:00
6:53 AM,35.1,24.1,64,29.94,10.0,WSW,8.1,-,N/A,,Scattered Clouds,250,2014-02-09 12:53:00
7:53 AM,37.9,24.1,57,29.96,10.0,West,9.2,-,N/A,,Mostly Cloudy,270,2014-02-09 13:53:00
8:53 AM,46.9,25.0,42,29.96,10.0,West,8.1,-,N/A,,Mostly Cloudy,270,2014-02-09 14:53:00
9:53 AM,53.1,26.1,35,29.96,10.0,WSW,9.2,-,N/A,,Mostly Cloudy,250,2014-02-09 15:53:00
10:53 AM,57.9,26.1,30,29.96,10.0,WSW,5.8,-,N/A,,Mostly Cloudy,250,2014-02-09 16:53:00
11:53 AM,64.9,26.1,23,29.91,10.0,SW,10.4,-,N/A,,Mostly Cloudy,230,2014-02-09 17:53:00
12:53 PM,66.0,28.0,24,29.90,10.0,East,17.3,-,N/A,,Mostly Cloudy,100,2014-02-09 18:53:00
1:53 PM,62.1,30.0,30,29.88,10.0,East,16.1,21.9,N/A,,Scattered Clouds,100,2014-02-09 19:53:00
2:53 PM,52.0,28.0,40,29.90,10.0,ENE,19.6,-,N/A,,Mostly Cloudy,70,2014-02-09 20:53:00
3:53 PM,45.0,28.0,52,29.92,10.0,ENE,18.4,24.2,N/A,,Mostly Cloudy,70,2014-02-09 21:53:00
4:53 PM,39.0,28.0,65,29.97,10.0,ENE,13.8,23.0,N/A,,Partly Cloudy,70,2014-02-09 22:53:00
5:14 PM,36.0,27.0,70,29.98,10.0,NE,17.3,23.0,N/A,,Mostly Cloudy,50,2014-02-09 23:14:00
5:53 PM,32.0,26.1,79,29.99,8.0,ENE,19.6,-,N/A,,Overcast,70,2014-02-09 23:53:00
6:53 PM,30.0,26.1,85,30.04,6.0,ENE,15.0,-,N/A,,Overcast,60,2014-02-10 00:53:00
7:18 PM,28.9,26.1,89,30.02,5.0,East,13.8,-,N/A,,Overcast,90,2014-02-10 01:18:00
7:42 PM,28.0,26.1,92,30.03,2.5,East,13.8,-,N/A,,Overcast,80,2014-02-10 01:42:00
7:53 PM,28.0,26.1,92,30.06,2.5,ENE,15.0,-,N/A,,Overcast,60,2014-02-10 01:53:00
8:13 PM,28.0,26.1,92,30.05,1.5,ENE,13.8,-,N/A,,Overcast,60,2014-02-10 02:13:00
8:53 PM,27.0,26.1,96,30.07,1.2,NE,13.8,-,N/A,,Overcast,50,2014-02-10 02:53:00
9:09 PM,27.0,26.1,96,30.07,0.5,NE,13.8,-,N/A,Fog,Light Freezing Fog,40,2014-02-10 03:09:00
9:23 PM,27.0,25.0,92,30.08,1.5,East,11.5,-,N/A,,Overcast,80,2014-02-10 03:23:00
9:53 PM,27.0,25.0,92,30.07,1.5,East,12.7,-,N/A,,Overcast,80,2014-02-10 03:53:00
10:53 PM,26.1,25.0,96,30.09,1.2,ENE,12.7,-,N/A,,Overcast,60,2014-02-10 04:53:00
11:53 PM,26.1,25.0,96,30.09,1.5,NE,12.7,-,0.00,,Light Freezing Drizzle,50,2014-02-10 05:53:00